Location: La Chapelle
(48.3135°N, 1.3085°W)
Time: 07:20:56
(UTC+00:00)

Lacrosse 4 Rocket - Pass Details

Date: 03 March 2021
Orbit: 537 x 620 km, 68.0° (Epoch: 13 April)

Event Time Altitude Azimuth Distance (km) Brightness Sun altitude
Rises 20:48:00 0° 222° (SW) 2,829 5.1 -29.3°
Reaches altitude 10° 20:50:15 10° 227° (SW) 1,943 4.3 -29.6°
Enters shadow 20:51:00 15° 229° (SW) 1,657 3.9 -29.7°
